Wetterübersicht - Hohenpeißenberg - Ortsteil Bschorrwald     750 m über NN
47°47'26''N 11°00'47''E - - Zeitangaben in MEZ
Datum Montag, 24. Februar 2020
Aktualisierung von 00:10 Uhr bis 23:50 Uhr alle 10 Minuten.
Zeit 22:35 (-1h = UTC-Zeit)
Temperatur Außen aktuell
12,2 °C
Min.(08:51)
2,8 °C
Max.(16:46)
13,7 °C
Durchschnitt
8,3 °C
Luftfeuchte Außen aktuell
57 %
Min.(21:41)
56 %
Max.(13:39)
100 %
Durchschnitt
83 %
Taupunkt aktuell
3,9 °C
Min.(08:51)
1,9 °C
Max.(15:16)
10,9 °C
Durchschnitt
5,3 °C
Luftdruck
aktuell
1012,0 hPa
fallend

-1,2 hPa/3h
Min.(22:25)
1012,0 hPa
Max.(06:07)
1023,8 hPa
Durchschnitt
1019,0 hPa
-0,5 hPa/1h -0,8 hPa/2h -2,8 hPa/6h -10,8 hPa/12h -7,2 hPa/24h
Solarstrahlung aktuell
0 W/m²
Max.(14:05)
656 W/m²
Durchschnitt
166 W/m²
Wettervorhersage regnerisch
Wettervorhersage VantagePro Teilweise wolkig mit wenig Temperaturänderung.
Persönliches Wohlbefinden leichter Kältestress (-1)
Windchill aktuell
12,2
Min.(10:17)
0,1
Max.(16:46)
13,7
Durchschnitt
7,7
Wind Böen aktuell
30,6 (5)
Max-Tag(00:22)
W-SW 82,1 (9)
Durchschnitt
15,9 (3)
Max Wind Böen letzte Stunde
40,2
letzten 3 Stunden
40,2
letzten 6 Stunden
40,2
Windgeschwindigkeit aktuell
20,9 (4)
Max.(00:16)
W-SW 49,9 (7)
Durchschnitt
10,9 (2)
Windrichtung 270 / W dominierend
W
Niederschlag
letzte Stunde 0,0
letzten 6 Stunden 0,0
aktueller Tag 6,2
aktuelle Woche 0,0
aktueller Monat 106,4
letzter Monat 28,6
Februar Vorjahr 44,2
aktuelles Jahr 135,0
Regen / Jahr 31
Schneehöhe 0,0 23.03.2015 21:45
Trockenzeiten
letzter Regen >0,2 l/m² 24.02.2020 um 11:32 Uhr
Trocken seit 11 Stunden, 3 Minuten
Längste Trockenzeit 05.09.2015, 09:00 Uhr
bis
18.01.2016, 10:43 Uhr
Dauer: 135 Tage, 1 Stunden, 43 Minuten
Dauerfrost
Letzte Dauerfrostperiode 15.02.2020, 05:47 Uhr
bis
15.02.2020, 06:38 Uhr
Dauer: 51 Minuten
Längste Dauerfrostperiode 23.01.2010, 11:37 Uhr
bis
16.02.2010, 12:45 Uhr
Dauer: 24 Tage, 1 Stunden, 7 Minuten
Sonne
Sonnenaufgang07:07
Sonnenzenit12:29
Sonnenhöchststand32,647
Sonnenintensität aktuell0
Sonnenuntergang17:51
Sonnenaufgang morgen07:05 25. Februar 2020
Tageslänge10:44
Bewölkungsgraddunkel 0
Sonnenschein akt. Tag3:25 Stunden
Sonnenschein letzte Stunde0
Sonnenschein Woche (bis Vortag)0 Minuten
Sonnenschein Monat (bis Vortag)92:52 Stunden
Mond
Alter des Mondes1 Tag, 3 Stunden, 2 Minuten
Mondaufgang07:56
Mondzenit13:11
Monduntergang18:35
Mondphase+2%
(0% = Neumond, 100% = Vollmond)
nächster Vollmond18:48 9. März 2020
nächster Neumond10:29 24. März 2020
Die dargestellten Werte repräsentieren die Daten des aktuellen Tages! Der Luftdruck ist auf Meereshöhe bezogen!
Die Mond-/Sonnen-Daten beziehen sich auf die Standortkoordinaten von 47° 47' 26" Nord - 11° 0' 47" Ost
Zeit --> Mitteleuropäische Zeit
Die Wettervorhersage wurde berechnet - ohne Gewähr!

          Aussen-    Aussen                                                    Wind                              
Zeit     tempera.   Feuchte   Luftdruck   Taupunkt  Windchill      Wind       richtung     Sonne        Regen        
----------------------------------------------------------------------------------------------------------------------------
00:00     13,3      58  1019,2     5,2    13,3     37,0        W       0     0,0   
01:00     11,9      69  1020,0     6,4    11,9     25,7        W       0     0,0   
02:00     10,4      78  1020,8     6,7    10,4     29,0     W-NW       0     0,0   
03:00      9,3      87  1021,0     7,2     6,7     17,7        W       0     0,0   
04:00      9,3      86  1021,4     7,1     7,1     14,5        W       0     0,0   
05:00      5,3      87  1022,6     3,3     1,5     19,3        N       0     1,8   
06:00      4,6      91  1023,6     3,3     4,6      0,0        N       0     0,4   
07:00      3,4      92  1023,5     2,2     2,4      4,8     O-NO       0     0,6   
08:00      3,2      93  1023,8     2,2     2,1      4,8     O-NO       7     0,8   
09:00      2,8      94  1023,6     1,9     1,1      6,4        O      19     0,6   
10:00      2,8      94  1023,2     1,9     0,6      8,0        O      72     0,8   
11:00      3,1      95  1022,4     2,4     3,1      3,2        O     102     0,8   
12:00      3,5      95  1021,7     2,8     3,5      3,2        O      74     0,4   
13:00      4,4      95  1020,3     3,7     4,4      3,2        O     313     0,0   
14:00      6,9      96  1018,6     6,3     6,9      0,0        N     396     0,0   
15:00     11,2      94  1016,7    10,3    11,2      0,0        N     413     0,0   
16:00     12,2      86  1015,5     9,9    12,2      0,0        N     269     0,0   
17:00     13,6      75  1014,4     9,3    13,6      8,0     W-SW      72     0,0   
18:00     12,1      76  1014,0     8,0    12,1      9,7     W-NW       0     0,0   
19:00     11,4      74  1013,4     6,9    11,4     12,9     W-NW       0     0,0   
20:00     12,1      67  1012,9     6,2    12,1     16,1        W       0     0,0   
21:00     11,8      61  1012,5     4,5    11,8     11,3     W-NW       0     0,0   
22:00     12,3      56  1012,2     3,8    12,3     16,1        W       0     0,0   
----------------------------------------------------------------------------------------------------------------------------
Durch.     8,3      83  1019,0     5,3     7,7     10,9                           6,2

Min.       2,8      56  1012,0     1,9     0,1
Zeit       08:51     21:41      22:25       08:51     10:17

Max.      13,7     100  1023,8    10,9                 82,1              656
Zeit       16:46     13:39      06:07       15:16                  00:22                  14:05

© 1999-2016 Werner Krenn / Mischa Thurnherr - Wetterstation Bedien- und Auswertesoftware - V2.98.4

Jahres-Eistage (Tmax < 0°C) 2 Vorjahres-Eistage (Tmax < 0°C) 7
Jahres-Frostage (Tmin < 0°C) 22 Vorjahres-Frostage (Tmin < 0°C) 68
Kalte Tage des Jahres (Tmax < 10°C) 33 Kalte Tage des Vorjahres (Tmax < 10°C) 122
Jahres-Sommertage (Tmax >= 25°C) 0 Vorjahres-Sommertage (Tmax >= 25°C) 53
Heiße Tage des Jahres (Tmax >= 30°C) 0 Heiße Tage Vorjahr (Tmax >= 30°C) 13